Location: Wangen+im+Allg�u
(47.7098°N, 9.8383°E)
Time: 21:42:47
(UTC+02:00)

ISS - Pass Details

Date: 25 May 2018
Orbit: 402 x 408 km, 51.6° (Epoch: 26 June)

Event Time Altitude Azimuth Distance (km) Brightness Sun altitude
Rises 21:47:08 0° 247° (WSW) 2,317 0.4 -6.6°
Reaches altitude 10° 21:49:13 10° 248° (WSW) 1,458 -0.7 -6.9°
Maximum altitude 21:52:29 85° 335° (NNW) 410 -3.8 -7.3°
Drops below altitude 10° 21:55:46 10° 66° (ENE) 1,461 -1.2 -7.7°
Enters shadow 22:01:11 -10° 68° (ENE) 3,697 0.8 -8.4°
